Theta_e
299 304 299 299 301 298 295 298 300 300 301 301 300 299 299 301 301 301 300 300 300 300 300 300 300 301 301 300 300 300 300 300 299 299 299 299 299 299 300 301 302 301 301 302
301 303 304 303 300 300 300 299 297 298 299 298 300 301 300 300 299 299 299 300 300 300 299 299 299 299 299 299 299 299 299 299 299 299 299 299 299 299 298 298 298 300 301 301
300 301 300 300 301 300 301 300 299 300 299 299 299 299 299 299 299 299 299 299 299 299 299 299 299 299 299 299 299 299 299 299 299 299 299 299 299 298 298 298 298 298 299 301
298 300 296 301 301 301 301 301 299 299 300 299 299 298 299 299 299 299 299 299 299 298 298 297 296 295 295 294 294 294 294 294 294 294 294 295 296 297 297 298 298 297 298 300
296 300 300 302 302 302 301 301 301 299 299 299 299 299 299 299 299 299 297 296 295 293 291 290 289 289 289 289 289 289 289 289 289 289 289 289 289 290 292 296 298 299 299 299
296 295 297 300 301 302 301 300 300 301 299 299 299 298 297 299 297 295 293 292 292 291 291 290 289 289 289 289 289 288 288 288 288 288 287 287 287 288 290 292 294 298 298 299
293 296 300 300 303 301 300 300 300 301 300 300 298 299 299 297 294 293 293 293 292 292 291 290 289 288 288 287 286 286 285 285 285 285 285 286 286 286 288 290 292 294 296 296
294 293 301 301 302 301 300 300 300 300 300 299 299 298 296 294 294 294 293 292 291 290 290 289 288 287 287 286 285 284 284 284 284 284 284 284 285 286 287 290 291 291 293 294
299 300 300 300 301 301 301 300 300 300 299 298 297 295 295 294 294 293 292 291 290 289 289 289 287 286 285 284 284 284 284 284 284 284 286 287 287 287 287 287 289 290 290 291
300 300 299 299 299 300 300 299 299 298 296 295 295 295 294 294 293 292 291 290 289 288 288 287 285 285 284 284 284 284 285 285 285 285 285 285 285 286 286 287 286 289 289 290
299 298 298 298 299 298 298 297 296 296 296 295 295 295 294 293 291 290 290 289 289 288 287 285 284 284 283 284 285 285 285 285 285 285 285 285 286 286 286 287 288 287 288 289
301 300 299 298 297 297 297 296 296 296 296 295 294 293 292 291 290 290 290 289 287 285 285 285 284 283 284 285 285 285 284 284 284 284 284 284 284 284 285 285 285 286 287 289
300 299 299 297 296 296 296 295 294 294 293 292 292 291 290 290 290 289 288 286 285 285 285 284 283 283 284 285 285 285 284 283 283 283 283 281 281 284 285 285 285 286 287 286
299 298 297 297 295 294 294 293 292 292 291 291 290 290 289 289 287 286 285 284 285 285 284 283 283 283 284 285 284 283 282 282 283 282 281 280 280 280 283 284 284 285 287 287
298 298 297 294 293 292 292 292 292 292 291 290 290 288 287 285 285 285 285 285 285 284 284 283 283 283 283 283 283 282 282 281 281 280 279 279 279 279 281 281 281 281 285 286
296 295 293 293 292 292 292 292 291 290 289 287 285 284 284 285 286 285 286 286 285 285 283 282 282 282 282 282 282 281 281 280 280 278 278 279 278 279 279 279 279 280 281 282
294 293 293 292 292 291 290 288 286 284 284 285 284 284 284 284 284 284 286 286 285 285 284 283 283 282 282 281 281 281 280 279 277 277 278 278 278 278 278 278 279 279 279 280
294 292 292 291 289 286 285 284 284 285 285 284 284 284 284 284 284 284 285 286 285 285 285 283 283 282 282 281 281 280 279 278 277 277 277 277 278 278 278 278 278 278 278 279
291 290 288 285 285 285 285 284 284 284 284 283 283 283 284 284 284 284 284 284 285 285 285 284 283 282 282 281 281 280 279 278 277 277 277 277 277 277 278 277 276 277 277 277
287 285 285 284 284 284 284 284 283 283 283 283 283 283 283 283 283 282 282 282 284 285 285 284 282 282 281 281 280 279 278 277 276 276 276 276 276 277 277 276 275 275 276 276
285 284 284 284 284 283 283 283 283 283 283 283 283 282 281 281 281 281 282 282 282 284 284 283 282 281 280 280 279 278 277 276 276 275 275 275 275 275 274 275 275 275 274 275
284 284 284 283 283 283 283 283 283 283 283 283 282 281 281 281 281 282 282 283 283 283 282 282 281 280 279 279 278 277 276 276 275 275 274 274 274 274 274 274 274 274 274 274
284 284 283 283 283 283 283 283 282 282 283 282 281 281 281 281 282 283 283 283 282 282 282 281 280 279 278 278 277 276 276 275 274 274 274 274 274 274 274 274 274 274 274 274
284 285 284 283 283 283 283 283 282 282 282 281 281 281 281 282 282 283 283 283 282 281 280 279 279 278 278 277 276 276 275 274 274 274 274 274 274 273 274 274 274 273 273 274
285 285 285 285 283 283 283 282 282 282 281 281 281 281 282 282 282 282 282 282 281 280 280 279 279 278 277 276 275 275 274 274 273 273 274 273 273 274 274 273 273 274 274 274
284 285 285 284 283 282 282 283 282 281 280 280 280 281 282 282 282 282 281 281 280 280 279 279 278 277 276 275 274 274 273 273 273 273 273 274 274 273 273 274 274 274 274 274
284 284 283 282 282 282 282 281 280 280 279 279 280 281 282 282 281 281 280 280 280 279 279 278 277 276 275 274 274 273 273 273 273 274 274 274 273 273 273 273 273 274 274 274
Wind_Speed
2 1 3 4 4 7 6 5 5 2 5 4 4 2 4 13 13 13 12 10 9 9 11 14 17 19 21 22 23 23 23 23 23 24 25 26 27 30 34 40 43 43 38 39
2 1 1 3 5 8 5 2 7 3 4 3 5 14 14 12 12 12 10 8 9 12 14 17 19 20 20 21 21 21 22 23 23 25 27 29 30 32 34 34 33 40 48 46
2 3 2 7 9 10 5 3 6 6 6 7 7 13 11 10 9 8 8 9 12 14 16 18 20 21 22 23 23 24 25 25 27 28 30 31 32 34 34 35 37 40 40 49
3 2 1 4 2 7 6 5 7 4 4 15 19 15 11 7 5 6 8 11 13 15 16 18 19 21 22 24 25 27 28 29 31 33 35 36 38 40 41 42 41 42 42 40
4 3 5 1 3 6 7 6 8 8 13 23 21 9 8 4 4 6 9 11 12 14 15 16 19 21 23 26 28 29 31 33 34 35 37 38 39 39 38 40 40 40 42 39
2 4 6 3 2 7 5 4 9 16 20 21 15 2 4 2 3 6 8 11 12 15 19 22 25 27 30 32 34 35 36 37 37 38 39 40 40 39 40 38 39 39 39 38
2 2 7 5 2 7 4 5 16 19 16 15 7 4 6 1 4 7 9 11 15 20 23 26 28 31 33 35 35 37 38 40 40 39 41 42 43 40 38 39 39 37 38 32
3 3 7 0 3 6 4 16 19 15 11 8 5 4 2 0 3 6 9 13 18 22 25 27 31 35 36 35 35 37 38 39 40 40 39 39 41 41 37 36 38 38 34 32
7 5 2 4 4 3 14 20 16 13 10 5 4 3 2 2 5 8 11 16 20 24 28 30 33 33 34 35 37 39 41 41 40 39 38 35 34 35 37 35 36 37 36 33
3 1 1 6 10 13 12 14 12 8 6 4 3 4 4 5 6 10 14 19 22 27 31 34 34 33 33 35 38 38 38 39 34 33 36 36 34 35 36 35 36 36 35 33
2 2 8 8 13 14 14 11 9 7 5 3 3 3 4 7 10 14 19 23 27 30 33 34 32 32 33 34 34 34 35 36 35 34 36 38 36 37 35 35 34 33 35 32
5 16 6 16 14 11 11 8 5 2 2 2 2 5 7 11 14 18 23 27 30 31 33 31 31 31 31 30 29 30 35 38 34 35 36 36 38 39 37 36 36 34 34 28
3 16 11 19 13 9 7 8 8 4 1 3 6 9 10 14 20 25 28 30 29 29 30 29 29 31 29 28 29 33 39 40 36 34 41 43 39 33 37 41 35 34 36 30
19 24 21 16 13 11 7 6 3 2 4 6 7 9 16 21 24 28 31 28 26 27 28 29 30 31 30 29 34 40 41 40 31 39 41 40 37 34 32 36 39 38 36 29
15 7 17 19 15 10 6 3 2 4 4 6 11 17 21 25 28 28 27 26 25 27 29 30 30 32 30 32 37 39 40 39 38 38 39 38 35 32 28 32 38 35 29 22
21 22 19 15 11 7 2 2 5 7 10 14 18 20 22 23 26 28 27 24 26 28 30 30 31 31 31 34 36 39 40 39 37 39 39 37 35 32 31 32 33 29 28 24
22 18 14 11 6 3 4 7 9 12 13 17 20 23 25 26 28 29 28 24 26 28 30 30 31 31 31 34 35 39 39 39 38 38 37 35 33 32 31 32 30 30 29 26
13 14 10 6 3 3 6 9 12 14 17 21 23 24 26 27 29 29 29 27 28 30 30 30 30 30 33 34 36 39 39 39 40 39 35 34 32 30 32 30 32 32 30 29
10 8 5 3 5 7 9 11 14 17 19 22 24 26 27 28 28 30 31 30 32 33 35 29 30 31 33 34 37 40 39 41 40 37 35 33 31 29 30 35 39 31 31 32
9 6 5 5 6 9 11 14 16 18 20 23 25 27 28 30 31 33 33 33 31 31 29 29 29 31 34 35 39 40 41 41 39 37 35 33 32 27 32 40 35 32 29 29
6 4 4 6 9 12 13 13 17 20 22 24 26 28 32 33 33 34 34 35 31 25 23 26 29 32 35 37 39 41 41 40 38 37 36 33 30 35 38 34 36 33 30 30
6 5 6 10 11 12 14 16 19 22 24 25 28 32 34 33 34 32 27 28 21 21 25 28 31 33 35 37 40 40 39 38 38 36 34 33 37 37 37 36 35 32 30 34
5 7 10 11 15 17 17 18 21 23 25 27 32 33 32 32 27 30 27 19 22 24 27 31 32 34 37 39 39 39 39 38 37 36 35 36 36 35 36 37 36 35 35 36
5 9 12 15 17 18 20 22 22 24 26 30 33 32 31 30 25 19 18 20 24 26 29 31 34 37 39 39 39 39 38 37 36 36 36 36 36 37 37 36 37 37 38 39
9 12 14 17 21 20 21 22 24 27 31 33 33 30 29 21 22 21 16 23 25 28 31 34 37 39 40 40 40 39 38 37 36 36 36 37 37 37 37 38 38 38 38 38
11 13 15 19 19 19 21 22 27 31 33 33 32 27 26 17 18 21 24 26 29 31 34 37 39 41 40 40 39 38 37 37 37 37 37 38 38 38 38 37 37 36 36 35
14 13 17 17 16 19 22 26 29 31 32 30 30 27 23 26 25 25 26 30 33 35 37 39 40 40 39 39 38 38 37 38 38 38 38 38 37 36 35 35 34 34 33 32
Wind_Direction
253 115 151 175 173 180 182 180 163 297 202 262 214 18 33 115 111 97 79 64 44 18 354 340 331 324 319 317 315 312 309 303 299 297 296 298 299 297 296 290 288 290 289 297
9 120 265 272 216 194 219 200 261 276 268 250 100 121 110 99 92 80 64 35 9 351 342 338 336 333 331 326 321 317 313 309 304 302 301 302 302 300 299 299 298 286 280 280
268 356 358 301 215 184 184 188 150 190 221 152 124 118 106 95 83 65 36 13 359 352 345 338 334 331 331 330 326 321 318 317 316 313 310 307 305 303 303 303 305 303 290 271
165 30 354 246 189 189 169 182 192 129 156 160 140 118 108 96 65 42 16 359 351 344 340 339 337 335 334 334 333 331 329 326 323 322 320 317 312 308 304 302 301 298 297 283
135 196 292 230 188 146 175 230 193 161 143 146 142 127 81 87 37 16 1 356 353 352 354 352 349 347 344 341 338 336 334 333 332 329 326 323 321 320 316 306 299 295 292 288
122 139 218 239 299 175 144 292 176 163 157 170 178 199 200 189 356 358 6 11 9 358 350 347 347 345 342 340 337 334 331 328 326 324 322 321 318 318 318 316 310 303 297 290
144 190 283 238 213 161 102 236 168 167 162 164 184 213 157 182 13 8 359 354 348 346 346 346 345 341 339 337 335 332 330 329 328 327 324 321 319 317 316 319 319 314 305 298
92 92 269 320 148 163 183 154 164 165 163 155 142 147 154 25 340 338 338 339 340 340 340 340 340 337 334 334 331 328 327 326 325 324 323 321 320 320 321 323 325 322 318 308
177 213 307 278 230 188 160 163 165 162 155 148 161 177 214 286 307 319 328 331 332 333 334 336 336 334 332 332 330 328 326 325 323 324 327 329 322 321 322 320 321 323 325 321
108 133 86 117 125 143 140 148 143 141 145 147 154 178 219 255 296 314 321 325 328 331 333 334 334 333 331 329 328 327 326 327 328 325 328 325 322 319 318 321 318 316 319 321
59 113 126 135 136 135 130 127 127 137 155 180 205 234 268 293 305 311 318 326 329 330 329 328 329 330 330 329 329 329 329 331 329 327 326 324 321 319 318 318 313 311 307 311
218 190 144 165 150 145 140 139 150 181 165 184 249 297 301 302 308 317 324 327 326 324 323 324 325 326 327 327 328 331 333 332 325 322 329 324 319 316 314 317 320 312 310 299
149 150 143 141 143 147 142 120 110 95 63 321 309 304 301 313 320 322 324 324 320 319 319 320 323 325 328 329 328 331 332 330 328 325 320 324 325 321 318 317 319 324 316 308
142 134 123 143 130 130 131 123 110 31 343 328 319 317 319 319 320 320 319 319 316 315 318 323 327 330 329 328 329 329 329 327 322 319 324 326 325 319 314 320 321 318 330 313
137 150 141 135 134 131 130 110 32 4 342 312 308 316 319 317 318 318 318 317 315 315 322 327 326 327 326 325 327 328 329 328 323 323 324 326 326 323 319 311 315 319 323 327
129 129 134 138 133 127 98 7 342 332 324 321 322 324 324 321 320 323 321 316 315 316 322 323 323 325 327 327 329 330 330 328 327 326 326 328 328 325 322 322 322 322 317 315
134 133 141 132 126 94 10 350 341 334 334 334 330 326 324 325 323 324 323 314 310 311 317 321 321 326 326 328 329 330 330 329 330 327 327 327 325 324 324 323 321 318 319 314
142 138 131 117 84 12 354 348 341 334 332 329 327 324 323 326 328 325 321 313 309 308 313 318 320 325 324 325 327 329 329 329 329 326 325 325 324 322 320 320 320 318 317 313
125 120 99 52 22 4 354 342 335 329 326 325 325 326 325 323 322 320 320 314 311 311 313 316 320 321 322 322 325 328 329 328 327 326 326 323 319 317 313 313 320 314 310 310
119 97 69 42 9 349 343 337 328 325 327 329 328 325 325 325 324 321 321 318 315 316 312 315 317 319 321 321 323 326 328 327 326 325 323 319 319 320 306 310 315 314 311 310
107 79 36 5 350 341 332 328 326 329 330 328 328 328 328 326 324 323 323 323 327 322 314 315 318 320 321 322 324 325 326 326 325 324 321 319 317 313 316 316 316 315 310 310
100 58 16 350 344 336 330 330 330 328 327 329 330 332 332 331 329 327 326 330 331 325 322 321 321 321 323 324 324 324 325 325 323 322 321 318 317 318 318 319 318 316 311 309
57 17 0 346 343 341 333 331 330 329 330 330 332 335 334 331 333 333 329 334 326 320 322 322 323 326 327 326 326 325 325 324 323 323 321 319 319 319 319 317 316 313 313 315
10 354 348 346 341 334 332 334 332 332 330 331 334 335 332 327 323 334 324 316 319 322 323 325 329 329 329 328 328 327 325 324 324 323 321 320 320 319 317 316 317 318 313 311
350 341 334 335 337 333 332 331 330 331 333 332 332 335 335 333 324 325 316 321 322 325 326 330 331 331 330 330 328 327 326 325 325 323 322 322 320 318 319 318 315 313 313 314
339 325 328 331 332 330 331 331 331 331 331 331 330 333 336 337 343 328 321 323 326 327 329 330 331 331 330 330 329 327 327 326 325 325 323 321 321 320 318 317 318 318 318 318
334 323 324 328 329 330 332 331 330 330 330 328 322 323 321 321 322 322 326 329 329 328 328 329 330 331 331 331 330 330 329 328 327 325 324 323 322 322 322 322 321 321 322 323